Home > Weather > Borås > Past weeks

Flag for Sweden Past Weather in Borås, Sweden — Yesterday and Last 2 Weeks

Now
72 °F

Sunny.


Feels Like: 75 °F
Forecast: 56 / 68 °F
Wind: 8 mph from Southwest

Location: Gothenburg / Landvetter

Current Time: Jul 25, 2016 at 7:58:40 PM

Latest Report: Jul 25, 2016 at 7:20 PM


Visibility: 10 mi

Pressure: 30.01 "Hg

Humidity: 65%

Dew Point: 59 °F

Location of BoråsLocation

Past Weather in Borås — Graph

°F

Borås Temperature Yesterday

Maximum temperature yesterday: 81 °F (at 3:50 PM)
Minimum temperature yesterday: 61 °F (at 4:20 AM)
Average temperature yesterday: 71 °F

High & Low Weather Summary for the Past Weeks

 TemperatureHumidityPressure
High81 °F (Jul 24, 3:50 PM)100% (Jul 10, 9:50 PM)30.15 "Hg (Jul 10, 9:50 PM)
Low48 °F (Jul 14, 2:20 AM)41% (Jul 22, 7:20 PM)29.53 "Hg (Jul 11, 5:20 AM)
Average62 °F78%29.94 "Hg
* Reported Jul 10 6:20 PM — Jul 25 6:20 PM, Borås, Weather by CustomWeather, © 2016

Note: Actual official high and low records may vary slightly from our data, if they occured in-between our weather recording intervals... More about our weather records

Advertising

Borås Weather History for the Previous 24 Hours

Scroll right to see more
 ConditionsComfort  
Time TempWeatherWind HumidityBarometerVisibility
6:20 PM
Mon, Jul 25
72 °FSunny.12 mph65%30.01 "Hg10 mi
5:50 PM72 °FSunny.13 mph61%30.01 "Hg10 mi
5:20 PM72 °FSunny.13 mph57%30.01 "Hg10 mi
4:50 PM73 °FSunny.10 mph53%30.01 "Hg10 mi
4:20 PM73 °FSunny.10 mph61%30.01 "Hg10 mi
3:50 PM73 °FSunny.10 mph65%30.01 "Hg10 mi
3:20 PM75 °FSunny.10 mph65%30.01 "Hg10 mi
2:50 PM75 °FSunny.8 mph65%30.04 "Hg10 mi
2:20 PM75 °FPassing clouds.6 mph65%30.04 "HgN/A
1:50 PM77 °FPassing clouds.7 mph54%30.04 "HgN/A
1:20 PM75 °FPassing clouds.6 mph61%30.04 "HgN/A
12:50 PM75 °FPassing clouds.6 mph57%30.04 "HgN/A
12:20 PM73 °FPassing clouds.8 mph61%30.04 "HgN/A
11:50 AM75 °FPassing clouds.7 mph61%30.07 "HgN/A
11:20 AM73 °FPassing clouds.7 mph65%30.07 "HgN/A
10:50 AM73 °FSunny.7 mph61%30.07 "Hg10 mi
10:20 AM73 °FPassing clouds.7 mph61%30.07 "HgN/A
9:50 AM72 °FSunny.7 mph65%30.07 "Hg10 mi
9:20 AM72 °FSunny.7 mph65%30.07 "Hg10 mi
8:50 AM70 °FPassing clouds.7 mph69%30.07 "HgN/A
8:20 AM68 °FSunny.6 mph69%30.07 "Hg10 mi
7:50 AM66 °FSunny.5 mph78%30.07 "Hg10 mi
7:20 AM64 °FSunny.8 mph83%30.07 "Hg10 mi
6:50 AM64 °FSunny.6 mph83%30.07 "Hg10 mi
6:20 AM63 °FSunny.8 mph83%30.07 "Hg10 mi
5:50 AM63 °FClear.6 mph83%30.07 "Hg10 mi
5:20 AM63 °FClear.7 mph77%30.07 "Hg10 mi
4:50 AM63 °FClear.5 mph77%30.07 "Hg10 mi
4:20 AM64 °FClear.6 mph73%30.07 "Hg10 mi
3:50 AM64 °FClear.7 mph73%30.09 "Hg10 mi
3:20 AM66 °FClear.3 mph68%30.09 "Hg10 mi
2:50 AM64 °FClear.5 mph73%30.09 "Hg10 mi
2:20 AM64 °FClear.1 mph73%30.09 "Hg10 mi
1:50 AM64 °FClear.1 mph73%30.09 "Hg10 mi
1:20 AM64 °FClear.No wind73%30.09 "Hg10 mi
12:50 AM64 °FClear.No wind73%30.09 "Hg10 mi
12:20 AM64 °FClear.No wind73%30.09 "Hg10 mi
11:50 PM
Sun, Jul 24
68 °FClear.2 mph64%30.09 "Hg10 mi
11:20 PM68 °FClear.1 mph64%30.12 "Hg10 mi
10:50 PM68 °FClear.3 mph64%30.12 "Hg10 mi
10:20 PM70 °FSunny.3 mph60%30.12 "Hg10 mi
9:50 PM70 °FPassing clouds.5 mph60%30.09 "HgN/A
9:20 PM72 °FSunny.3 mph61%30.09 "Hg10 mi
8:50 PM73 °FSunny.5 mph53%30.09 "Hg10 mi
8:20 PM75 °FSunny.5 mph50%30.09 "Hg10 mi
7:50 PM75 °FSunny.6 mph50%30.09 "Hg10 mi
7:20 PM77 °FSunny.7 mph47%30.09 "Hg10 mi
Weather by CustomWeather, © 2016

See weather overviewHow to use our weather pages